This is the latest recevied weather packets stored in our database for station/object KA9CBS. If no packets are shown the sender has not sent any weather packets the latest 10 day(s).
| Time | Temp. | Humidity | Pressure | Rain* | Wind** | Luminosity | Snow |
|---|---|---|---|---|---|---|---|
| 1787844566 | 26.67° C | 72% | 1018.7 hPa | 0 mm | - | 456 W/m² | - |
| 1787844262 | 26.67° C | 73% | 1018.6 hPa | 0 mm | - | 422 W/m² | - |
| 1787843961 | 26.11° C | 71% | 1018.7 hPa | 0 mm | - | 451 W/m² | - |
| 1787843656 | 26.11° C | 74% | 1018.6 hPa | 0 mm | - | 476 W/m² | - |
| 1787843352 | 26.11° C | 74% | 1018.8 hPa | 0 mm | - | 471 W/m² | - |
| 1787843048 | 26.11° C | 76% | 1018.7 hPa | 0 mm | - | 460 W/m² | - |
| 1787842747 | 26.11° C | 76% | 1018.6 hPa | 0 mm | - | 468 W/m² | - |
| 1787842443 | 25.56° C | 77% | 1018.5 hPa | 0 mm | - | 499 W/m² | - |
| 1787842143 | 25.56° C | 79% | 1018.5 hPa | 0 mm | - | 456 W/m² | - |
| 1787841837 | 25.56° C | 79% | 1018.6 hPa | 0 mm | - | 511 W/m² | - |
| 1787841534 | 25° C | 79% | 1018.5 hPa | 0 mm | - | 474 W/m² | - |
| 1787841233 | 25° C | 79% | 1018.5 hPa | 0 mm | - | 417 W/m² | - |
| 1787840928 | 25° C | 81% | 1018.4 hPa | 0 mm | - | 349 W/m² | - |
| 1787840623 | 24.44° C | 81% | 1018.3 hPa | 0 mm | - | 335 W/m² | - |
| 1787840319 | 24.44° C | 82% | 1018.1 hPa | 0 mm | - | 333 W/m² | - |
| 1787840018 | 23.89° C | 82% | 1018.2 hPa | 0 mm | - | 302 W/m² | - |
| 1787839713 | 23.89° C | 82% | 1018.2 hPa | 0 mm | - | 293 W/m² | - |
| 1787839407 | 23.89° C | 83% | 1018.3 hPa | 0 mm | - | 281 W/m² | - |
| 1787839107 | 23.33° C | 85% | 1018.4 hPa | 0 mm | - | 238 W/m² | - |
| 1787838806 | 23.89° C | 85% | 1018.3 hPa | 0 mm | - | 242 W/m² | - |
| 1787838501 | 23.33° C | 85% | 1018.5 hPa | 0 mm | - | 223 W/m² | - |
| 1787838200 | 23.33° C | 85% | 1018.3 hPa | 0 mm | - | 214 W/m² | - |
| 1787837899 | 22.78° C | 87% | 1017.9 hPa | 0 mm | - | 201 W/m² | - |
| 1787837598 | 22.78° C | 88% | 1017.9 hPa | 0 mm | - | 182 W/m² | - |
| 1787837293 | 22.78° C | 89% | 1018 hPa | 0 mm | - | 166 W/m² | - |
* Rain latest hour (hover to see other rain measurements)
** Current wind speed in m/s (hover to see current wind gust speed)